User: anonymous   Login
Location: Wingville
(42.9917°N, 90.4915°W)
Time: 07:57:38
(UTC+00:00)
Language:

SL-4 R/B - Orbit

View from above orbital plane
View from above orbital plane
View from above satellite
View from above satellite

Ground track
Ground track

The orbit data is extracted from the following two-line orbital elements,

1 39679U 14021B   22330.86989707  .00002698  00000-0  13750-3 0  9990
2 39679  51.6142 278.9798 0161902 163.3596 197.2776 15.09891071473641
Epoch (UTC): 26 November 2022 20:52:39
Eccentricity: 0.0161902
inclination: 51.6142°
perigee height: 424 km
apogee height: 648 km
right ascension of ascending node: 278.9798°
argument of perigee: 163.3596°
revolutions per day: 15.09891071
mean anomaly at epoch: 197.2776°
orbit number at epoch: 47364

The dashed part of the orbit path shows where the satellite is in the earth's shadow,  

DLR